Cloud_Cover
100 100 100 100 100 100 100 100 100 100 100 100 100 100 100 100 100 100 100 100 100 100 100 100 100 78 99 88 90 100 100 100 100 100 100 100 100 100 100 100 33 60 59 100
94 60 100 100 100 100 100 100 100 100 99 99 100 100 100 100 100 100 100 100 100 100 100 100 100 100 100 100 100 100 100 100 100 100 100 100 100 100 100 100 47 100 100 100
0 98 100 100 100 100 100 100 100 100 100 95 100 100 100 100 100 100 100 100 100 100 100 100 100 100 100 100 96 100 100 100 100 100 100 100 100 100 100 53 25 97 100 100
2 3 100 100 100 100 100 100 100 100 100 100 100 100 100 100 100 100 100 100 100 100 100 100 100 100 100 100 100 100 100 100 100 100 100 100 100 100 100 100 88 83 99 100
0 0 42 100 100 100 100 100 100 100 100 100 100 100 100 100 100 100 100 100 100 100 100 100 100 100 100 100 100 100 100 100 100 100 100 100 100 100 100 100 100 100 100 100
0 0 0 17 100 100 100 100 100 100 100 64 100 100 100 100 100 100 100 100 100 100 100 100 100 100 100 100 100 100 100 100 100 100 100 100 100 100 100 100 100 100 100 100
2 0 0 0 1 90 100 100 100 100 69 44 100 91 95 100 100 100 100 100 100 100 100 100 100 100 100 100 100 100 100 100 100 100 100 100 100 100 100 100 100 100 100 100
5 4 0 0 0 0 22 100 100 100 100 100 100 46 80 100 100 100 100 100 100 100 100 100 100 100 100 100 100 100 100 100 100 100 100 100 100 86 100 100 100 100 100 100
95 26 0 0 0 0 0 0 90 100 100 100 61 79 92 100 100 100 100 100 100 93 98 99 98 100 100 100 100 100 100 100 100 100 100 100 100 100 100 100 100 100 100 100
100 95 31 5 0 0 0 0 0 3 24 61 6 16 100 100 100 100 100 100 100 68 56 56 93 38 68 84 100 100 100 96 74 95 100 90 98 100 100 100 100 100 100 100
100 100 78 5 0 0 0 0 0 0 0 0 40 38 100 100 100 100 100 100 100 100 100 75 44 98 100 100 100 100 100 100 100 100 100 100 100 100 100 100 100 100 100 100
100 100 100 96 88 46 7 0 0 0 0 2 1 34 100 100 100 100 100 100 100 100 100 100 100 100 100 100 100 100 100 100 100 100 100 100 100 100 100 100 100 100 97 53
100 100 100 100 100 96 15 1 0 0 0 0 0 0 3 100 100 100 100 100 100 100 100 100 100 74 96 49 77 100 100 98 100 100 100 100 100 100 99 99 100 100 93 75
100 100 100 100 32 87 96 36 6 6 0 0 0 0 0 66 100 100 100 100 100 100 100 100 100 100 100 94 76 48 90 100 100 100 100 100 100 88 86 100 90 99 74 99
100 100 100 100 100 100 100 100 100 60 5 0 4 0 0 41 100 100 98 100 99 100 100 100 100 100 100 100 91 26 20 22 67 74 100 98 98 100 100 100 94 78 76 84
100 100 100 100 100 100 100 100 100 20 5 0 0 0 0 11 100 100 100 86 89 100 100 100 100 100 100 100 100 100 99 39 5 5 16 99 100 100 100 98 97 76 98 100
100 100 100 100 100 100 100 52 93 100 96 80 1 30 83 2 30 100 100 100 100 82 100 100 100 100 100 100 97 26 5 5 7 5 5 5 17 72 49 76 87 96 100 100
100 100 100 100 100 100 85 35 19 56 89 100 40 84 100 5 2 68 100 100 93 75 85 99 100 100 100 79 10 5 1 0 0 0 0 0 4 4 5 30 18 16 24 34
100 100 100 100 100 100 63 80 73 28 5 89 100 100 42 88 2 1 94 84 49 36 12 92 100 100 64 5 5 5 0 0 0 0 0 0 0 0 5 5 5 10 28 47
100 100 100 100 100 100 36 100 99 91 73 29 100 100 100 25 4 64 66 68 99 100 99 99 99 6 5 5 5 0 0 0 0 0 0 0 0 0 0 1 5 5 15 9
100 96 100 100 100 100 55 74 69 100 26 100 100 100 100 5 6 100 97 7 5 20 13 5 39 50 27 17 5 0 0 1 1 0 0 0 0 0 0 0 2 5 5 29
100 100 100 86 100 99 18 50 18 0 67 85 100 92 59 10 96 100 100 100 100 100 89 41 81 86 48 8 6 10 32 40 5 5 5 5 0 0 0 0 2 5 5 39
99 100 94 100 29 7 0 5 62 92 100 100 97 88 38 90 5 99 100 100 100 100 100 98 90 99 76 30 10 86 73 30 5 5 5 5 1 0 0 0 0 7 6 96
98 100 100 100 87 69 0 4 3 40 2 26 100 99 100 100 12 93 7 92 100 100 100 100 100 100 100 100 19 15 8 5 5 5 5 5 5 5 0 1 5 29 100 100
0 9 100 100 97 7 3 4 1 1 0 0 100 100 100 100 17 8 83 86 100 100 100 100 100 100 100 100 41 5 11 9 30 11 13 21 37 34 53 16 28 95 90 83
74 35 0 11 15 6 0 0 2 42 4 60 100 100 100 100 92 17 1 8 68 100 100 100 100 100 100 100 86 92 55 24 33 70 98 100 100 100 100 100 100 100 100 100